SV1AAW Weather Reports


time (UTC)temp
C
wind
direction
speed
KPH
gust
KPH
rain 1hr
cm
rain 24hr
cm
rain mn
cm
humidity
%
barometer
mb
20260902102022 31 0 11.3 20.9 0.00 0.00 0.00 29 1015.4
20260902101025 30 340 8.0 16.1 0.00 0.00 0.00 32 1015.5
20260902100043 30 2 8.0 17.7 0.00 0.00 0.00 35 1015.6
20260902095020 30 3 8.0 17.7 0.00 0.00 0.00 38 1015.6
20260902094044 30 347 8.0 17.7 0.00 0.00 0.00 39 1015.7
20260902093024 29 354 9.7 25.7 0.00 0.00 0.00 39 1015.7
20260902092022 28 8 9.7 17.7 0.00 0.00 0.00 41 1015.7
20260902091020 28 1 8.0 17.7 0.00 0.00 0.00 44 1015.8
20260902090021 28 356 8.0 17.7 0.00 0.00 0.00 46 1016.1
20260902085017 28 15 8.0 17.7 0.00 0.00 0.00 47 1016.1
20260902084025 27 8 8.0 14.5 0.00 0.00 0.00 48 1016.1
20260902083020 27 15 9.7 17.7 0.00 0.00 0.00 47 1016.1
20260902082019 27 4 9.7 20.9 0.00 0.00 0.00 46 1016.0
20260902081022 27 6 8.0 17.7 0.00 0.00 0.00 48 1016.2
20260902080025 27 5 8.0 14.5 0.00 0.00 0.00 48 1016.1
20260902075026 26 24 8.0 17.7 0.00 0.00 0.00 49 1016.1
20260902074037 26 24 8.0 14.5 0.00 0.00 0.00 53 1016.2
20260902073019 25 34 4.8 11.3 0.00 0.00 0.00 55 1016.1
20260902072041 25 31 4.8 11.3 0.00 0.00 0.00 57 1016.2
20260902071019 25 20 6.4 14.5 0.00 0.00 0.00 58 1016.2
20260902070018 25 18 8.0 16.1 0.00 0.00 0.00 58 1016.0
20260902065038 25 18 9.7 14.5 0.00 0.00 0.00 58 1016.0
20260902064020 25 15 8.0 12.9 0.00 0.00 0.00 56 1015.9
20260902063026 25 29 4.8 11.3 0.00 0.00 0.00 58 1015.9
20260902062018 25 49 4.8 6.4 0.00 0.00 0.00 55 1016.0
20260902061027 25 53 3.2 6.4 0.00 0.00 0.00 56 1016.0
20260902060017 25 28 4.8 9.7 0.00 0.00 0.00 54 1016.1
20260902055020 25 22 4.8 9.7 0.00 0.00 0.00 56 1016.1
20260902054024 25 17 6.4 12.9 0.00 0.00 0.00 56 1015.9
20260902053022 25 1 6.4 14.5 0.00 0.00 0.00 58 1016.0
20260902052022 23 5 6.4 12.9 0.00 0.00 0.00 63 1015.9
20260902051024 23 9 3.2 6.4 0.00 0.00 0.00 68 1016.0
20260902050021 23 93 1.6 3.2 0.00 0.00 0.00 69 1015.9
20260902045042 23 66 0.0 1.6 0.00 0.00 0.00 71 1015.9
20260902044023 23 0.0 0.0 0.00 0.00 0.00 72 1015.9
20260902043022 22 0.0 0.0 0.00 0.00 0.00 72 1015.8
20260902042025 22 0.0 0.0 0.00 0.00 0.00 72 1015.8
20260902041042 23 0.0 0.0 0.00 0.00 0.00 71 1015.7
20260902040023 23 63 0.0 3.2 0.00 0.00 0.00 70 1015.5
20260902035043 23 31 0.0 1.6 0.00 0.00 0.00 69 1015.5
20260902034023 23 347 0.0 3.2 0.00 0.00 0.00 65 1015.2
20260902033016 23 352 1.6 4.8 0.00 0.00 0.00 60 1015.1
20260902032017 23 357 4.8 11.3 0.00 0.00 0.00 59 1015.0
20260902031041 24 343 3.2 6.4 0.00 0.00 0.00 57 1015.1
20260902030017 24 339 3.2 9.7 0.00 0.00 0.00 57 1014.9
20260902025041 24 342 3.2 11.3 0.00 0.00 0.00 56 1014.9
20260902024017 24 346 3.2 6.4 0.00 0.00 0.00 55 1014.9
20260902023024 24 335 3.2 9.7 0.00 0.00 0.00 56 1014.9
20260902022021 24 3 3.2 6.4 0.00 0.00 0.00 54 1014.9
20260902021025 24 351 3.2 9.7 0.00 0.00 0.00 53 1014.9
20260902020022 25 342 4.8 11.3 0.00 0.00 0.00 52 1014.8
20260902015036 25 351 4.8 9.7 0.00 0.00 0.00 52 1014.8
20260902014019 25 354 4.8 11.3 0.00 0.00 0.00 50 1014.9
20260902013017 25 339 6.4 11.3 0.00 0.00 0.00 50 1014.8
20260902012020 25 347 3.2 9.7 0.00 0.00 0.00 50 1014.7
20260902011024 25 334 4.8 9.7 0.00 0.00 0.00 50 1014.8
20260902010020 25 341 6.4 14.5 0.00 0.00 0.00 50 1014.7
20260902005026 25 345 4.8 11.3 0.00 0.00 0.00 50 1014.6
20260902004024 25 348 4.8 11.3 0.00 0.00 0.00 50 1014.8
20260902003021 25 354 4.8 11.3 0.00 0.00 0.00 51 1014.7
20260902002019 25 349 3.2 6.4 0.00 0.00 0.00 50 1014.6
20260902001037 25 345 4.8 12.9 0.00 0.00 0.00 49 1014.6
20260902000048 26 6 4.8 11.3 0.00 0.00 0.00 47 1014.7
20260901235040 26 1 3.2 9.7 0.00 0.00 0.00 44 1014.6
20260901234015 26 350 4.8 11.3 0.00 0.00 0.00 43 1014.5
20260901233019 26 337 4.8 12.9 0.00 0.00 0.00 41 1014.6
20260901232020 26 357 4.8 11.3 0.00 0.00 0.00 42 1014.4
20260901231044 26 350 4.8 16.1 0.00 0.00 0.00 45 1014.5
20260901230025 26 357 4.8 11.3 0.00 0.00 0.00 44 1014.6
20260901225026 26 357 4.8 11.3 0.00 0.00 0.00 48 1014.6
20260901224025 26 15 4.8 11.3 0.00 0.00 0.00 45 1014.7
20260901223023 26 359 4.8 11.3 0.00 0.00 0.00 45 1014.6
20260901222025 26 0 6.4 12.9 0.00 0.00 0.00 47 1014.6
20260901221018 26 4 4.8 11.3 0.00 0.00 0.00 53 1014.8
20260901220022 26 13 6.4 12.9 0.00 0.00 0.00 51 1014.7
20260901215023 26 349 4.8 11.3 0.00 0.00 0.00 49 1014.7
20260901214019 26 15 3.2 11.3 0.00 0.00 0.00 47 1014.7
20260901213021 26 8 8.0 14.5 0.00 0.00 0.00 47 1014.7
20260901212024 26 360 6.4 12.9 0.00 0.00 0.00 48 1014.8
20260901211016 26 31 3.2 9.7 0.00 0.00 0.00 50 1014.8
20260901210022 26 39 3.2 9.7 0.00 0.00 0.00 52 1014.8
20260901205045 26 64 3.2 6.4 0.00 0.00 0.00 50 1014.8
20260901204026 27 48 4.8 12.9 0.00 0.00 0.00 48 1014.8
20260901203036 27 359 6.4 16.1 0.00 0.00 0.00 42 1014.6
20260901202039 27 10 4.8 11.3 0.00 0.00 0.00 45 1014.7
20260901201017 27 356 4.8 11.3 0.00 0.00 0.00 45 1014.6
20260901200038 27 354 4.8 14.5 0.00 0.00 0.00 47 1014.5
20260901195021 28 359 6.4 11.3 0.00 0.00 0.00 42 1014.5
20260901194023 28 341 8.0 16.1 0.00 0.00 0.00 43 1014.4
20260901193021 28 5 8.0 17.7 0.00 0.00 0.00 41 1014.4
20260901192024 28 5 6.4 14.5 0.00 0.00 0.00 41 1014.6
20260901191025 28 2 4.8 14.5 0.00 0.00 0.00 48 1014.5
20260901190023 28 353 4.8 16.1 0.00 0.00 0.00 44 1014.4
20260901185022 28 348 4.8 9.7 0.00 0.00 0.00 42 1014.3
20260901184020 28 350 4.8 11.3 0.00 0.00 0.00 41 1014.3
20260901183023 28 348 6.4 12.9 0.00 0.00 0.00 40 1014.1
20260901182040 29 347 6.4 12.9 0.00 0.00 0.00 39 1014.0
20260901181023 29 2 4.8 12.9 0.00 0.00 0.00 40 1013.8
20260901180021 29 349 4.8 11.3 0.00 0.00 0.00 40 1013.8
20260901175036 29 350 4.8 11.3 0.00 0.00 0.00 42 1013.6
20260901174025 29 9 4.8 11.3 0.00 0.00 0.00 44 1013.4
20260901173024 29 347 4.8 9.7 0.00 0.00 0.00 45 1013.2
20260901172018 29 345 4.8 12.9 0.00 0.00 0.00 46 1013.2
20260901171019 29 354 4.8 12.9 0.00 0.00 0.00 47 1013.0
20260901170023 29 356 6.4 14.5 0.00 0.00 0.00 46 1012.9
20260901165019 29 344 6.4 11.3 0.00 0.00 0.00 47 1012.8
20260901164018 30 1 4.8 9.7 0.00 0.00 0.00 49 1012.9
20260901163019 30 358 4.8 11.3 0.00 0.00 0.00 47 1012.6
20260901162017 31 0 6.4 12.9 0.00 0.00 0.00 44 1012.6
20260901161023 31 11 6.4 12.9 0.00 0.00 0.00 44 1012.5
20260901160041 31 344 6.4 12.9 0.00 0.00 0.00 40 1012.5
20260901155020 32 338 8.0 14.5 0.00 0.00 0.00 41 1012.4
20260901154017 31 358 8.0 17.7 0.00 0.00 0.00 40 1012.5
20260901153026 31 3 6.4 14.5 0.00 0.00 0.00 42 1012.6
20260901152024 31 359 8.0 16.1 0.00 0.00 0.00 41 1012.6
20260901151021 31 350 6.4 14.5 0.00 0.00 0.00 42 1012.6
20260901150023 31 354 6.4 12.9 0.00 0.00 0.00 43 1012.5
20260901145019 32 6 8.0 17.7 0.00 0.00 0.00 39 1012.4
20260901144025 32 359 8.0 14.5 0.00 0.00 0.00 35 1012.5
20260901143041 32 344 8.0 14.5 0.00 0.00 0.00 34 1012.6
20260901142024 32 346 6.4 12.9 0.00 0.00 0.00 35 1012.6
20260901141021 33 349 8.0 14.5 0.00 0.00 0.00 33 1012.7
20260901140024 33 348 8.0 14.5 0.00 0.00 0.00 32 1012.8
20260901135026 32 347 8.0 14.5 0.00 0.00 0.00 32 1012.8
20260901134024 32 356 8.0 17.7 0.00 0.00 0.00 34 1012.8
20260901133025 32 356 8.0 14.5 0.00 0.00 0.00 31 1012.8
20260901132022 32 3 6.4 14.5 0.00 0.00 0.00 36 1012.8
20260901131017 32 2 4.8 11.3 0.00 0.00 0.00 38 1012.9
20260901130023 32 1 8.0 16.1 0.00 0.00 0.00 37 1012.9
20260901125025 32 354 6.4 14.5 0.00 0.00 0.00 35 1013.0
20260901124019 32 7 8.0 14.5 0.00 0.00 0.00 32 1013.1
20260901123039 32 340 8.0 17.7 0.00 0.00 0.00 31 1013.2
20260901122021 32 351 6.4 12.9 0.00 0.00 0.00 35 1013.3
20260901121024 32 358 6.4 14.5 0.00 0.00 0.00 37 1013.3
20260901120022 32 355 8.0 17.7 0.00 0.00 0.00 36 1013.4
20260901115024 32 356 9.7 17.7 0.00 0.00 0.00 36 1013.6
20260901114045 31 0 9.7 16.1 0.00 0.00 0.00 38 1013.6
20260901113017 31 1 9.7 20.9 0.00 0.00 0.00 42 1013.8
20260901112041 30 357 8.0 17.7 0.00 0.00 0.00 45 1013.9
20260901111020 30 358 8.0 16.1 0.00 0.00 0.00 45 1014.0
20260901110019 30 5 8.0 14.5 0.00 0.00 0.00 48 1014.0
20260901105024 30 12 8.0 16.1 0.00 0.00 0.00 49 1014.1
20260901104037 29 12 8.0 14.5 0.00 0.00 0.00 50 1014.2
20260901103023 28 13 9.7 17.7 0.00 0.00 0.00 50 1014.4